Location: Unspecified
(42.7170°S, 0.0000°E)
Time: 19:19:03
(UTC+00:00)

N. Korean satellite - Pass Details

Date: 30 May 2019
Orbit: 455 x 510 km, 97.2° (Epoch: 24 June)

Event Time Altitude Azimuth Distance (km) Brightness Sun altitude
Exits shadow 17:23:54 - 147° (SSE) 1,991 9.2 -8.7°
Reaches altitude 10° 17:24:35 10° 141° (SE) 1,749 8.9 -8.9°
Maximum altitude 17:27:43 24° 85° (E) 1,090 7.8 -9.4°
Drops below altitude 10° 17:30:50 10° 29° (NNE) 1,739 9.3 -9.9°
Sets 17:33:12 0° 15° (NNE) 2,618 10.4 -10.3°
